Погода в Буффало

США     42°53′09″N   78°52′41″W
темп.,
°C
ветер,
м/с
пор.,
м/с
влажн.,
%
обл.,
%
осадки,
мм/ч
давл.,
гПа
погр.,
м
15 августа, пн
пн1523:00+20всв384873 0.0 1015257
02:00+18всв265791 0.0 1015189
05:00+16всв39605 0.0 1014255
08:00+18всв255480 0.0 1015178
11:00+21всв2449100 0.0 1016294
14:00+28св243286 0.0 10141957
17:00+19с2579100 0.6 1015123
20:00+19ю2378100 0.9 101571
16 августа, вт
вт1623:00+20в1171100 0.1 101621
02:00+19вюв1276100 0.2 101746
05:00+18всв1283100 0.4 101752
08:00+18в127963 0.5 101872
11:00+24всв344871 0.0 10181110
14:00+25в454393 0.0 10171429
17:00+27ссв334134 0.0 10171580
20:00+17ю499099 1.1 1019314
17 августа, ср
ср1723:00+17вюв3892100 0.8 1019264
02:00+16сз1186100 0.8 101827
05:00+17в2384100 0.0 1019100
08:00+17ю2486100 0.1 1020207
11:00+21зсз126290 0.0 1019554
14:00+25с2244100 0.4 10181890
17:00+19ююз2381100 1.3 1018176
20:00+19ссв2485100 1.7 1018109
18 августа, чт
чт1823:00+18в138299 0.1 101790
02:00+17ююв018287 0.1 101728
05:00+16юв1186100 0.0 101711
08:00+18юв1178100 0.0 1017107
11:00+21юв1059100 0.0 1017503
14:00+25юв1145100 0.0 1016948
17:00+26сз114076 0.0 10141500
20:00+21зсз236615 0.6 101587
19 августа, пт
пт1923:00+18юв228581 1.8 101518
02:00+17ю11905 1.8 101622
05:00+16ю23904 0.0 101759
08:00+18ююз24831 0.0 1018140
11:00+25з22500 0.0 1018934
14:00+29сз22350 0.0 10182342
17:00+29ссз113339 0.0 10171987
20:00+24юв23440 0.0 101862